Regional Weather Roundup
Issued by NWS

Home | Current Version | Previous Version | Text Only | Print | Product List | Glossary Off
Versions: 1 2 3 4 5 6 7 8 9 10 11 12 13 14 15 16 17 18 19 20 21 22 23 24 25 26 27 28 29 30 31 32 33 34 35 36 37 38 39 40 41 42 43 44 45 46 47 48 49 50

000
ASUS43 KMKX 021611
RWRWI

WISCONSIN REGIONAL WEATHER ROUNDUP
NATIONAL WEATHER SERVICE MILWAUKEE/SULLIVAN WI
1100 AM CDT THU JUL 02 2015

NOTE: "FAIR" INDICATES FEW OR NO CLOUDS BELOW 12,000 FEET WITH NO
SIGNIFICANT WEATHER AND/OR OBSTRUCTIONS TO VISIBILITY.

WIZ001-002-006>008-014>016-023>028-021700-
NORTHWEST WISCONSIN

CITY           SKY/WX    TMP DP  RH WIND       PRES   REMARKS
SUPERIOR ARPT  SUNNY     72  61  68 W8        30.02S
ASHLAND        SUNNY     71  56  58 SW7       30.03S
HAYWARD        SUNNY     70  51  51 CALM      30.06R
SIREN          SUNNY     71  52  50 S3        30.05
CUMBERLAND     NOT AVBL
RICE LAKE      SUNNY     67  53  59 CALM      30.07S
CHETEK         NOT AVBL
LADYSMITH      NOT AVBL
EAU CLAIRE     SUNNY     69  54  58 CALM      30.05S
MENOMONIE      SUNNY     66  56  70 CALM      30.06
NEW RICHMOND   SUNNY     70  54  56 E3        30.04F
OSCEOLA        NOT AVBL
$$

WIZ003>005-009-010-017-018-021700-
NORTH CENTRAL WISCONSIN

CITY           SKY/WX    TMP DP  RH WIND       PRES   REMARKS
MANITOWISH WTR NOT AVBL
ARBOR VITAE    NOT AVBL
WOODRUFF       NOT AVBL
RHINELANDER    SUNNY     66  48  52 CALM      30.08S
EAGLE RIVER    SUNNY     64  48  55 CALM      30.07
LAND O LAKES   SUNNY     67  46  45 SW5       30.07F
PHILLIPS       SUNNY     68  48  49 SE5       30.06
TOMAHAWK       SUNNY     66  52  60 CALM      30.08
MEDFORD        NOT AVBL
MERRILL        SUNNY     66  52  59 CALM      30.09
$$

WIZ029-030-035-036-043>047-021700-
CENTRAL WISCONSIN

CITY           SKY/WX    TMP DP  RH WIND       PRES   REMARKS
WAUSAU         SUNNY     68  46  45 CALM      30.07R
MOSINEE        SUNNY     64  48  55 CALM      30.09R
MARSHFIELD     SUNNY     67  51  56 SE5       30.07S
STEVENS POINT  SUNNY     63  45  51 E7        30.08R
WAUPACA        SUNNY     70  46  43 NE3       30.08
WAUTOMA        SUNNY     66  46  48 E12       30.08R
WISC RAPIDS    SUNNY     67  46  47 NE8       30.08S
CAMP DOUGLAS   MOSUNNY   66  55  68 E5        30.07S
$$

WIZ011>013-019>022-031-037>040-048>050-021700-
NORTHEAST WISCONSIN

CITY           SKY/WX    TMP DP  RH WIND       PRES   REMARKS
ANTIGO         NOT AVBL
SHAWANO        NOT AVBL
OCONTO         SUNNY     66  45  45 E6        30.06
STURGEON BAY   SUNNY     63  46  55 N6        30.09F
GREEN BAY      SUNNY     67  49  52 NE8       30.07S
MANITOWOC      RAIN      65  47  52 MISG      30.07R
APPLETON       SUNNY     64  45  48 E8        30.08R
CLINTONVILLE   NOT AVBL
OSHKOSH        SUNNY     65  46  50 NE9       30.06S
$$

WIZ032>034-041-042-053>061-021700-
SOUTHWEST WISCONSIN

CITY           SKY/WX    TMP DP  RH WIND       PRES   REMARKS
LA CROSSE      NOT AVBL
SPARTA         NOT AVBL
VIROQUA        NOT AVBL
BOSCOBEL       SUNNY     68  52  56 VRB7      30.06F
PRAIRIE DU CHI NOT AVBL
PLATTEVILLE    SUNNY     66  48  52 NE10      30.05
$$

WIZ056-057-062-063-064-067-068-021700-
SOUTH CENTRAL WISCONSIN

CITY           SKY/WX    TMP DP  RH WIND       PRES   REMARKS
REEDSBURG      NOT AVBL
BARABOO/DELLS  SUNNY     64  46  53 NE8       30.07
LONE ROCK      SUNNY     65  48  54 E8        30.07S
MINERAL POINT  SUNNY     64  46  52 E5        30.06
MADISON        SUNNY     64  45  49 E9        30.06R
MIDDLETON      NOT AVBL
WATERTOWN      SUNNY     62  48  59 NE8       30.05
MONROE         NOT AVBL
JANESVILLE     SUNNY     64  48  55 E9        30.04S
$$

WIZ051-052-058>065-066-070>072-021700-
SOUTHEAST WISCONSIN

CITY           SKY/WX    TMP DP  RH WIND       PRES   REMARKS
MILWAUKEE      MOSUNNY   61  51  70 NE9       30.05F
WAUKESHA       SUNNY     61  46  59 NE8G16    30.06S
MILWAUKEE/TIMM SUNNY     63  45  51 NE9       30.06S
RACINE         SUNNY     63  50  62 N10       30.06S
BURLINGTON     NOT AVBL
KENOSHA        MOSUNNY   64  51  62 NE9       30.05R
FOND DU LAC    SUNNY     65  47  52 NE12      30.06S
SHEBOYGAN      SUNNY     62  49  62 NE10      30.06S
WEST BEND      SUNNY     63  46  55 E10       30.05
JUNEAU         NOT AVBL
$$

LSZ147-162-021700-
LAKE SUPERIOR

STATION/POSITION TIME  TEMP    WIND        PRES    WAVE
                       AIR SEA DIR/SP/G            HT/PER
                 (UTC) (F)     (DEG/KT/KT) (MB)    (FT/S)
W MID LAKE BUOY  1550   45 39  180/  8/  8 1016.6F   0
DEVILS ISLAND    1600   62     230/  5/  7 1016.3F
SAXON HARBOR     1540   72     210/  3/  8 1016.6S
$$

LMZ867-665-643>646-021700-
LAKE MICHIGAN

STATION/POSITION TIME  TEMP    WIND        PRES    WAVE
                       AIR SEA DIR/SP/G            HT/PER
                 (UTC) (F)     (DEG/KT/KT) (MB)    (FT/S)
CHAMBERS ISLAND  1500   64     320/  4/  5 1018.6F
N MID LAKE BUOY  1550   51 46  340/  2/  2 1019.1R   0
NORTHPORT PIER   1500   59     330/  5/  6 1018.6S
SISTER BAY       1444   64     350/  5/  6   N/A
ALGOMA LAKESHORE 1510           80/  9/ 11   N/A
KEWAUNEE LAKESHO 1500   61      40/  6/  9 1017.6F
SHEBOYGAN LAKESH 1600   56      20/ 10/ 11 1018.5R
PORT WASHINGTON  1540   59      50/ 12/ 14 1018.6S
ATWATER BUOY     1600   56      20/ 10/ 14 1019.1R
MILWAUKEE LAKESH 1500   56      30/ 11/ 12   N/A
KENOSHA   LAKESH 1600   57      20/ 11/ 12 1017.3S
$$

TC  - TEMPERATURE IN CELSIUS
VSB - VISIBILITY IN STATUTE MILES
WCI - WIND CHILL INDEX
HX  - HEAT INDEX



USA.gov is the U.S. government's official web portal to all federal, state and local government web resources and services.